AX317 Weather Reports


time (UTC)temp
C
wind
direction
speed
KPH
gust
KPH
rain 1hr
cm
rain 24hr
cm
rain mn
cm
humidity
%
barometer
mb
20260507151339 12 335 0.0 0.0 0.00 0.00 0.03 38 1006.4
20260507150842 12 329 0.0 0.0 0.00 0.00 0.03 39 1006.4
20260507145935 12 280 0.0 0.0 0.00 0.00 0.03 39 1006.8
20260507145340 12 325 0.0 0.0 0.00 0.00 0.03 42 1006.8
20260507144842 12 310 0.0 0.0 0.00 0.00 0.03 41 1006.4
20260507144340 12 315 0.0 0.0 0.00 0.00 0.03 42 1006.4
20260507143839 12 287 0.0 0.0 0.00 0.00 0.03 40 1006.4
20260507143340 12 298 0.0 0.0 0.00 0.00 0.03 40 1006.4
20260507142839 11 240 0.0 0.0 0.00 0.00 0.03 41 1006.4
20260507142339 11 300 0.0 0.0 0.00 0.00 0.03 42 1006.4
20260507141839 11 332 0.0 0.0 0.00 0.00 0.03 41 1006.4
20260507141340 12 253 0.0 0.0 0.00 0.00 0.03 44 1006.1
20260507140846 12 294 0.0 0.0 0.00 0.00 0.03 46 1006.1
20260507140339 12 15 0.0 0.0 0.00 0.00 0.03 46 1006.4
20260507135839 11 309 0.0 0.0 0.00 0.00 0.03 46 1006.4
20260507135342 11 335 0.0 0.0 0.00 0.00 0.03 49 1006.4
20260507134840 11 229 0.0 0.0 0.00 0.00 0.03 48 1006.4
20260507134340 11 354 0.0 0.0 0.00 0.00 0.03 47 1006.4
20260507133841 12 354 0.0 0.0 0.00 0.00 0.03 52 1006.4
20260507133341 11 89 0.0 0.0 0.00 0.00 0.03 53 1006.1
20260507132839 11 338 0.0 0.0 0.00 0.00 0.03 55 1006.1
20260507132343 11 290 0.0 0.0 0.00 0.00 0.03 56 1006.1
20260507131841 11 10 0.0 0.0 0.00 0.00 0.03 58 1006.1
20260507131340 11 358 0.0 0.0 0.00 0.00 0.03 59 1006.4
20260507130840 11 329 0.0 0.0 0.00 0.00 0.03 56 1006.1
20260507130343 11 300 0.0 0.0 0.00 0.00 0.03 57 1006.1
20260507125840 10 12 0.0 0.0 0.00 0.00 0.03 60 1006.4
20260507125340 10 344 0.0 0.0 0.00 0.00 0.03 63 1006.4
20260507124840 10 39 0.0 0.0 0.00 0.00 0.03 73 1006.1
20260507124340 10 312 0.0 0.0 0.30 0.00 0.03 75 1006.1
20260507123842 10 13 0.0 0.0 0.00 0.00 0.00 82 1006.1
20260507123341 10 257 0.0 0.0 0.00 0.00 0.00 84 1006.1
20260507122840 10 240 0.0 0.0 0.00 0.00 0.00 83 1006.1
20260507121839 10 257 0.0 0.0 0.00 0.00 0.00 83 1006.1
20260507121339 10 312 0.0 0.0 0.00 0.00 0.00 82 1006.1
20260507120840 10 339 0.0 0.0 0.00 0.00 0.00 84 1006.1
20260507120339 8 281 0.0 0.0 0.00 0.00 0.00 90 1006.1
20260507115839 8 257 0.0 0.0 0.00 0.00 0.00 96 1005.8
20260507115341 7 257 0.0 0.0 0.00 0.00 0.00 99 1005.8
20260507114340 7 357 0.0 0.0 0.00 0.00 0.00 99 1006.1
20260507113842 7 342 0.0 0.0 0.00 0.00 0.00 99 1006.1
20260507113340 8 342 0.0 0.0 0.00 0.00 0.00 99 1006.1
20260507111339 7 342 0.0 0.0 0.00 0.00 0.00 100 1005.8
20260507105348 6 342 0.0 0.0 0.00 0.00 0.00 98 1005.8
20260507104840 6 285 0.0 0.0 0.00 0.00 0.00 98 1005.8
20260507104339 6 299 0.0 0.0 0.00 0.00 0.00 98 1005.8
20260507103840 6 325 0.0 0.0 0.00 0.00 0.00 98 1005.8
20260507101840 6 282 0.0 0.0 0.00 0.00 0.00 98 1005.4
20260507095339 5 282 0.0 0.0 0.00 0.00 0.00 98 1005.8
20260507094839 5 282 0.0 0.0 0.00 0.00 0.00 98 1005.8
20260507094342 5 322 0.0 0.0 0.00 0.00 0.00 98 1005.8
20260507093839 5 265 0.0 0.0 0.00 0.00 0.00 98 1005.8
20260507093339 6 292 0.0 0.0 0.00 0.00 0.00 98 1005.8
20260507092839 6 292 0.0 0.0 0.00 0.00 0.00 98 1005.8
20260507092339 6 290 0.0 0.0 0.00 0.00 0.00 98 1005.8
20260507091839 6 270 0.0 0.0 0.00 0.00 0.00 98 1005.8
20260507091339 6 285 0.0 0.0 0.00 0.00 0.00 97 1005.8
20260507090840 6 291 0.0 0.0 0.00 0.00 0.00 97 1006.1
20260507090340 6 243 0.0 0.0 0.00 0.00 0.00 97 1006.1
20260507084839 6 243 0.0 0.0 0.00 0.00 0.00 97 1006.1
20260507083340 6 245 0.0 0.0 0.00 0.00 0.00 97 1005.4
20260507082841 6 297 0.0 0.0 0.00 0.00 0.00 97 1005.4
20260507081840 6 316 0.0 0.0 0.00 0.00 0.00 97 1005.8
20260507081341 6 287 0.0 0.0 0.00 0.00 0.00 97 1005.8
20260507080839 6 267 0.0 0.0 0.00 0.00 0.00 97 1005.8
20260507080341 7 248 0.0 0.0 0.00 0.00 0.00 97 1005.4
20260507075839 7 248 0.0 0.0 0.00 0.00 0.00 97 1005.8
20260507062839 7 297 0.0 0.0 0.00 0.00 0.00 96 1005.1
20260507062340 7 320 0.0 0.0 0.00 0.00 0.00 96 1005.1
20260507061840 7 320 0.0 0.0 0.00 0.00 0.00 96 1005.4
20260507061340 7 261 0.0 0.0 0.00 0.00 0.00 96 1005.4
20260507055340 7 261 0.0 0.0 0.00 0.00 0.00 96 1005.4
20260507054839 8 261 0.0 0.0 0.00 0.00 0.00 96 1005.8
20260507054339 8 261 0.0 0.0 0.00 0.00 0.00 96 1005.8
20260507053839 8 261 0.0 0.0 0.00 0.00 0.00 96 1005.8
20260507053339 8 320 0.0 0.0 0.00 0.00 0.00 96 1005.8
20260507052839 8 320 0.0 0.0 0.00 0.00 0.00 96 1006.1
20260507052340 8 270 0.0 0.0 0.00 0.00 0.00 96 1006.1
20260507051839 8 290 0.0 0.0 0.00 0.00 0.00 96 1006.1
20260507050839 8 253 0.0 0.0 0.00 0.00 0.00 96 1005.8
20260507045840 8 281 0.0 0.0 0.00 0.00 0.00 96 1005.8
20260507045339 8 327 0.0 0.0 0.00 0.00 0.00 96 1005.8
20260507042840 8 327 0.0 0.0 0.00 0.00 0.00 96 1005.4
20260507042339 8 327 0.0 0.0 0.00 0.00 0.00 96 1005.4
20260507041839 8 327 0.0 0.0 0.00 0.00 0.00 96 1005.4
20260507035839 8 327 0.0 0.0 0.00 0.00 1.14 96 1005.8
20260507032839 8 327 0.0 0.0 0.00 0.00 1.14 96 1005.8
20260507032339 8 327 0.0 0.0 0.00 0.00 1.14 96 1005.8
20260507031839 8 276 0.0 0.0 0.00 0.00 1.14 96 1005.8
20260507031340 8 345 0.0 0.0 0.00 0.00 1.14 96 1005.8
20260507030841 8 298 0.0 0.0 0.00 0.00 1.14 96 1005.8
20260507030339 8 275 0.0 0.0 0.00 0.00 1.14 96 1005.8
20260507025840 9 275 0.0 0.0 0.00 0.00 1.14 96 1005.8
20260507025340 9 284 0.0 0.0 0.00 0.00 1.14 96 1005.8
20260507024839 9 283 0.0 0.0 0.00 0.00 1.14 96 1005.8
20260507024344 9 292 0.0 0.0 0.00 0.00 1.14 96 1005.8
20260507023839 9 353 0.0 0.0 0.00 0.00 1.14 96 1005.4
20260507022840 9 353 0.0 0.0 0.00 0.00 1.14 96 1005.8
20260507022339 9 353 0.0 0.0 0.30 0.00 1.14 96 1005.8
20260507021840 9 301 0.0 0.0 0.00 0.00 1.12 96 1005.8
20260507021340 10 256 0.0 0.0 0.00 0.00 1.12 96 1005.8
20260507020839 10 320 0.0 0.0 0.00 0.00 1.12 96 1005.8
20260507020341 10 306 0.0 0.0 0.00 0.00 1.12 96 1005.8
20260507015840 10 330 0.0 0.0 0.00 0.00 1.12 96 1005.4
20260507014339 10 307 0.0 0.0 0.00 0.00 1.07 96 1005.4
20260507013427 11 313 0.0 0.0 0.00 0.00 1.07 97 1005.1
20260507011340 11 313 0.0 0.0 0.00 0.00 1.07 97 1004.4
20260507010840 11 319 0.0 0.0 0.00 0.00 1.07 97 1004.4
20260507010339 11 319 0.0 0.0 0.00 0.00 1.07 97 1004.4
20260507005340 12 319 0.0 0.0 0.00 0.00 1.07 98 1004.1
20260507004839 12 9 0.0 0.0 0.00 0.00 1.07 98 1004.1
20260507004339 12 318 0.0 0.0 7.04 0.00 1.07 98 1003.7
20260506214339 15 64 0.0 0.0 0.00 0.00 0.81 98 1001.7
20260506213839 15 64 0.0 0.0 0.00 0.00 0.81 98 1001.7
20260506213340 15 64 0.0 0.0 0.00 0.00 0.81 98 1001.7
20260506212839 15 150 0.0 0.0 0.00 0.00 0.81 98 1001.7
20260506212339 15 339 0.0 0.0 0.61 0.00 0.81 98 1001.7
20260506211840 15 76 0.0 0.0 0.00 0.00 0.76 98 1001.7
20260506211339 15 76 0.0 0.0 0.00 0.00 0.76 98 1001.7
20260506210839 15 155 0.0 0.0 0.00 0.00 0.76 98 1001.7
20260506205340 16 253 0.0 0.0 0.00 0.00 0.76 98 1001.7
20260506204839 16 267 0.0 0.0 0.30 0.00 0.76 97 1001.7
20260506204340 16 264 0.0 0.0 0.00 0.00 0.74 98 1001.7
20260506203840 16 141 0.0 0.0 0.00 0.00 0.74 98 1001.7
20260506203340 16 254 0.0 0.0 0.00 0.00 0.74 98 1001.7
20260506202839 16 164 0.0 0.0 0.30 0.00 0.74 98 1001.7
20260506202340 16 152 0.0 0.0 0.00 0.00 0.71 97 1001.7
20260506201840 16 310 0.0 0.0 0.00 0.00 0.71 97 1001.7
20260506201339 16 310 0.0 0.0 0.00 0.00 0.71 97 1001.7
20260506200840 16 12 0.0 0.0 0.00 0.00 0.71 98 1001.7
20260506200340 16 250 0.0 0.0 0.00 0.00 0.71 98 1001.7
20260506195839 16 258 0.0 0.0 0.00 0.00 0.71 97 1002.0
20260506195339 16 177 0.0 0.0 0.00 0.00 0.71 98 1002.0
20260506194839 16 166 0.0 0.0 0.00 0.00 0.71 98 1002.0
20260506194340 16 171 0.0 0.0 0.00 0.00 0.71 98 1002.0
20260506193840 16 10 0.0 0.0 0.30 0.00 0.71 97 1002.0
20260506193339 16 249 0.0 0.0 0.30 0.00 0.69 98 1002.0
20260506192841 16 317 0.0 0.0 0.00 0.00 0.66 98 1002.0
20260506192340 16 317 0.0 0.0 0.00 0.00 0.66 97 1002.4
20260506191840 16 317 0.0 0.0 0.00 0.00 0.66 97 1002.0
20260506185839 16 249 0.0 0.0 0.00 0.00 0.61 97 1002.4
20260506184339 16 255 0.0 0.0 0.00 0.00 0.53 97 1002.7
20260506183840 16 271 0.0 0.0 0.00 0.00 0.53 97 1002.7
20260506182839 16 189 0.0 0.0 0.30 0.00 0.51 97 1002.7
20260506182342 16 5 0.0 0.0 0.00 0.00 0.48 97 1003.0
20260506181840 16 5 0.0 0.0 0.30 0.00 0.48 96 1003.0
20260506181341 16 110 0.0 0.0 0.00 0.00 0.46 96 1003.0
20260506180839 16 321 0.0 0.0 0.61 0.00 0.46 96 1003.4
20260506180340 16 195 0.0 0.0 0.00 0.00 0.41 96 1003.4
20260506175842 16 140 0.0 0.0 0.30 0.00 0.41 96 1003.4
20260506175343 16 259 0.0 0.0 0.61 0.00 0.38 96 1003.7
20260506174840 16 133 0.0 0.0 0.30 0.00 0.33 96 1003.7
20260506174340 16 220 0.0 0.0 0.00 0.00 0.30 95 1003.7
20260506173841 16 80 0.0 0.0 0.30 0.00 0.30 95 1004.1
20260506173340 16 274 0.0 0.0 0.30 0.00 0.28 95 1003.7
20260506172841 16 308 0.0 0.0 0.61 0.00 0.25 94 1004.1
20260506172339 16 14 0.0 0.0 0.00 0.00 0.20 94 1004.1
20260506171842 16 284 0.0 0.0 0.30 0.00 0.20 94 1004.1
20260506171340 16 225 0.0 0.0 0.30 0.00 0.18 93 1004.4
20260506170839 16 274 0.0 0.0 0.00 0.00 0.15 93 1004.4
20260506170339 16 293 0.0 0.0 0.30 0.00 0.15 93 1004.1
20260506165840 16 197 0.0 0.0 0.30 0.00 0.13 93 1004.1
20260506165339 16 291 0.0 0.0 0.00 0.00 0.10 92 1004.1
20260506164840 16 248 0.0 0.0 0.00 0.00 0.08 91 1004.1
20260506164341 16 248 0.0 0.0 0.30 0.00 0.08 91 1004.1
20260506163840 16 243 0.0 0.0 0.00 0.00 0.05 91 1004.1
20260506163339 16 344 0.0 0.0 0.30 0.00 0.05 91 1004.1
20260506162841 16 139 0.0 0.0 0.00 0.00 0.03 90 1004.1
20260506162339 16 232 0.0 0.0 0.30 0.00 0.03 89 1004.4
20260506161842 16 118 0.0 0.0 0.00 0.00 0.00 88 1004.1
20260506161339 17 189 0.0 0.0 0.00 0.00 0.00 87 1004.4
20260506160839 17 182 0.0 0.0 0.00 0.00 0.00 86 1004.4
20260506160342 17 204 0.0 0.0 0.00 0.00 0.00 86 1004.1
20260506155841 17 322 0.0 0.0 0.00 0.00 0.00 85 1004.4
20260506155339 17 318 0.0 0.0 0.00 0.00 0.00 85 1004.4
20260506154839 17 97 0.0 0.0 0.00 0.00 0.00 84 1004.4
20260506154340 17 235 0.0 0.0 0.00 0.00 0.00 84 1004.7
20260506153842 17 295 0.0 0.0 0.00 0.00 0.00 84 1004.7
20260506153339 17 170 0.0 0.0 0.00 0.00 0.00 84 1004.7
20260506152842 17 59 0.0 0.0 0.00 0.00 0.00 84 1005.1
20260506152343 16 182 0.0 0.0 0.00 0.00 0.00 84 1005.1
20260506151840 16 259 0.0 0.0 0.00 0.00 0.00 85 1005.1